Flight Track Log - Related Links

Times and Time Zones

All times are in EDT time to prevent confusion due to time zone crossing. See the SWA1586 flight status page for this flight to view local times or setup timezone preferences in your user account.

Time Position Orientation Groundspeed Altitude Reporting Facility
EDT Latitude Longitude Course Direction KTS MPH feet Rate Location/Type
12:23AM 39.8500 -104.5000 117° Southeast 268 308 9,100  Level Denver TRACON
12:24AM 39.8167 -104.4000 113° Southeast 310 357 11,100 2,789 Climbing Denver TRACON
12:25AM 39.8000 -104.2833 100° East 362 417 14,400 1,851 Climbing Denver TRACON
12:27AM 39.7727 -104.0516 113° Southeast  Level FlightAware Approximate
12:34AM 39.6695 -103.0143 105° East  Level FlightAware Approximate
12:35AM 39.6597 -102.8648 94° East  Level FlightAware Approximate
12:36AM 39.6517 -102.7149 94° East  Level FlightAware Approximate
12:37AM 39.6402 -102.5655 96° East  Level FlightAware Approximate
12:38AM 39.6273 -102.4163 97° East  Level FlightAware Approximate
12:39AM 39.6131 -102.2672 98° East  Level FlightAware Approximate
12:40AM 39.5966 -102.1187 98° East  Level FlightAware Approximate
12:40AM 39.6114 -101.9097 93° East 466 536 41,000  Level Denver Center
12:41AM 39.5808 -101.9700 96° East  Level FlightAware Approximate
12:41AM 39.6061 -101.7222 92° East 465 535 41,000  Level Denver Center
12:42AM 39.5684 -101.8208 96° East  Level FlightAware Approximate
12:42AM 39.5994 -101.5622 93° East 466 536 41,000  Level Denver Center
12:43AM 39.5561 -101.6716 96° East  Level FlightAware Approximate
12:43AM 39.5933 -101.4042 93° East 463 533 41,000  Level Denver Center
12:44AM 39.5494 -101.5229 93° East  Level FlightAware Approximate
12:44AM 39.5856 -101.2150 93° East 470 541 41,000  Level Denver Center
12:45AM 39.5424 -101.3742 93° East  Level FlightAware Approximate
12:46AM 39.5723 -101.0295 95° East  Level FlightAware Approximate
12:49AM 39.5556 -100.4753 96° East 461 531 41,000  Level Denver Center
12:50AM 39.5486 -100.3181 93° East 459 528 41,000  Level Denver Center
12:51AM 39.5408 -100.1594 94° East 460 529 41,000  Level Denver Center
12:52AM 39.5319 -99.9761 94° East 460 529 41,000  Level Denver Center
12:53AM 39.4926 -99.9922 95° East  Level FlightAware Approximate
12:53AM 39.5236 -99.8078 94° East 459 528 41,000  Level Denver Center
12:54AM 39.4804 -99.8442 96° East  Level FlightAware Approximate
12:54AM 39.5128 -99.5775 93° East 457 526 41,000  Level Denver Center
12:55AM 39.5031 -99.4161 94° East 452 520 41,000  Level Denver Center
12:56AM 39.4944 -99.2533 94° East 454 522 41,000  Level Denver Center
12:57AM 39.4856 -99.0908 94° East 454 522 41,000  Level Denver Center
12:58AM 39.4761 -98.9283 94° East 454 522 41,000  Level Denver Center
12:59AM 39.4661 -98.7642 94° East 457 526 41,000 -49 Level Denver Center
01:00AM 39.4558 -98.6008 95° East 456 525 40,900 -590 Descending Denver Center
01:01AM 39.4450 -98.4353 95° East 461 531 39,800 -942 Descending Denver Center
01:02AM 39.4361 -98.2694 94° East 464 534 39,000 -333 Descending Denver Center
01:04AM 39.4183 -98.0200 95° East 452 520 39,000  Level Kansas City Center
01:05AM 39.4072 -97.8556 95° East 458 527 39,000  Level Kansas City Center
01:06AM 39.3994 -97.7119 94° East 458 527 39,000  Level Kansas City Center
01:07AM 39.3856 -97.5250 95° East 454 522 39,000  Level Kansas City Center
01:08AM 39.3731 -97.3706 96° East 453 521 39,000  Level Kansas City Center
01:09AM 39.3617 -97.2139 95° East 455 524 39,000  Level Kansas City Center
01:10AM 39.3500 -97.0561 95° East 461 531 39,000  Level Kansas City Center
01:11AM 39.3369 -96.8708 95° East 464 534 39,000  Level Kansas City Center
01:12AM 39.3242 -96.7114 96° East 465 535 39,000  Level Kansas City Center
01:13AM 39.3128 -96.5517 95° East 466 536 39,000  Level Kansas City Center
01:14AM 39.2994 -96.3931 96° East 466 536 39,000  Level Kansas City Center
01:15AM 39.2869 -96.2294 96° East 461 531 39,000  Level Kansas City Center
01:16AM 39.2711 -96.0536 97° East 459 528 39,000  Level Kansas City Center
01:17AM 39.2561 -95.8703 96° East 460 529 39,000  Level Kansas City Center
01:18AM 39.2436 -95.7114 96° East 467 537 39,000  Level Kansas City Center
01:19AM 39.2297 -95.5528 96° East 467 537 39,000  Level Kansas City Center
01:20AM 39.2136 -95.3669 96° East 465 535 39,000  Level Kansas City Center
01:21AM 39.1975 -95.2031 97° East 463 533 39,000  Level Kansas City Center
01:22AM 39.1831 -95.0394 96° East 462 532 39,000  Level Kansas City Center
01:23AM 39.1694 -94.8817 96° East 464 534 39,000  Level Kansas City Center
01:24AM 39.1544 -94.7244 97° East 462 532 39,000  Level Kansas City Center
01:25AM 39.1397 -94.5697 97° East 455 524 39,000  Level Kansas City Center
01:26AM 39.1214 -94.3883 97° East 458 527 39,000  Level Kansas City Center
01:27AM 39.1058 -94.2333 97° East 457 526 39,000  Level Kansas City Center
01:28AM 39.0883 -94.0794 98° East 454 522 39,000  Level Kansas City Center
01:30AM 39.0586 -93.7450 96° East 456 525 39,000  Level Kansas City Center
01:31AM 39.0469 -93.5908 96° East 453 521 39,000  Level Kansas City Center
01:32AM 39.0328 -93.4119 96° East 451 519 39,000  Level Kansas City Center
01:33AM 39.0214 -93.2622 96° East 455 524 39,000  Level Kansas City Center
01:34AM 39.0083 -93.1050 96° East 451 519 39,000  Level Kansas City Center
01:36AM 38.9814 -92.7911 96° East 446 513 39,000 -265 Level Kansas City Center
01:37AM 38.9664 -92.6308 97° East 446 513 38,200 -1,750 Descending Kansas City Center
01:38AM 38.9531 -92.4711 96° East 447 514 35,500 -2,926 Descending Kansas City Center
01:39AM 38.9386 -92.3144 97° East 443 510 32,300 -2,926 Descending Kansas City Center
01:40AM 38.9253 -92.1553 96° East 444 511 29,600 -2,600 Descending Kansas City Center
01:41AM 38.9011 -92.0047 102° East 431 496 27,100 -2,430 Descending Kansas City Center
01:42AM 38.8686 -91.8667 107° East 410 472 24,700 -2,281 Descending Kansas City Center
01:43AM 38.8367 -91.7311 107° East 403 464 22,500 -2,250 Descending Kansas City Center
01:44AM 38.8083 -91.6022 106° East 394 453 20,200 -2,231 Descending Kansas City Center
01:45AM 38.8050 -91.4667 92° East 385 443 18,000 -2,132 Descending Kansas City Center
01:46AM 38.7989 -91.3361 93° East 373 429 15,900 -2,200 Descending Kansas City Center
01:47AM 38.7919 -91.2042 94° East 371 427 13,600 -2,231 Descending Kansas City Center
01:48AM 38.7861 -91.0764 93° East 366 421 11,400 -1,438 Descending Kansas City Center
01:49AM 38.7797 -90.9569 94° East 346 398 10,700 -950 Descending Kansas City Center
01:50AM 38.7750 -90.8528 93° East 308 354 9,500 -1,350 Descending Kansas City Center
01:51AM 38.7694 -90.7519 94° East 290 334 8,000 -1,438 Descending Kansas City Center
01:52AM 38.7500 -90.6622 106° East 271 312 6,600 -992 Descending Kansas City Center
01:53AM 38.7211 -90.5783 114° Southeast 258 297 6,000 -900 Descending Kansas City Center
01:54AM 38.6914 -90.4953 115° Southeast 259 298 4,800 -1,000 Descending Kansas City Center
01:55AM 38.6536 -90.4050 118° Southeast 255 293 4,000 -397 Descending Kansas City Center
01:56AM 38.6261 -90.3431 120° Southeast 229 264 4,000 -248 Level Kansas City Center
01:57AM 38.6181 -90.2783 99° East 220 253 3,500 -900 Descending Kansas City Center
01:58AM 38.6650 -90.2458 28° Northeast 204 235 2,200 -650 Descending Kansas City Center
01:59AM 38.6992 -90.2603 342° North 166 191 2,200 -347 Level Kansas City Center
02:00AM 38.7183 -90.2972 304° West 139 160 1,500 -694 Descending Kansas City Center
02:01AM 38.7356 -90.3339 301° West 127 146 800 -400 Descending Kansas City Center
02:02AM 38.7531 -90.3711 301° West 126 145 700 -100 Descending Kansas City Center

Login

Don't have an account? Register now (free) for customized features, flight alerts, and more!